Change the Weather History Date:

Tuesday, April 23, 2013

  Actual Average Record
Temperature  
Mean Temperature 35 °F -  
Max Temperature 42 °F 57 °F 81 °F (1985)
Min Temperature 26 °F 33 °F 11 °F (1956)
Degree Days  
Heating Degree Days 30    
Moisture  
Dew Point 30 °F    
Average Humidity 81    
Maximum Humidity 100    
Minimum Humidity 60    
Precipitation  
Precipitation 0.02 in - - ()
Sea Level Pressure  
Sea Level Pressure 29.94 in    
Wind  
Wind Speed 8 mph (NNW)    
Max Wind Speed 21 mph    
Max Gust Speed 28 mph    
Visibility 8 miles    
Events Rain    
Averages and records for this station are not official NWS values.
T = Trace of Precipitation, MM = Missing Value Source: NWS Daily Summary

Daily Weather History Graph

Daily Weather History Graph

Search for Another Location

Airport or City:

Trip Planner

Search our weather history database for the weather conditions in past years. The results will help you decide how hot, cold, wet, or windy it might be!

Date:

Astronomy

Apr. 23, 2013 Rise Set
Actual Time 5:52 AM CDT 7:50 PM CDT
Civil Twilight 5:20 AM CDT 8:22 PM CDT
Nautical Twilight 4:40 AM CDT 9:01 PM CDT
Astronomical Twilight 3:57 AM CDT 9:45 PM CDT
Moon 5:39 PM CDT (4/23) 4:27 AM CDT (4/23)
Length of Visible Light 15h 01m
Length of Day
13h 57m
Waxing Gibbous, 94% of the Moon is Illuminated
Apr 23
Waxing Gibbous
Apr 25
Full
May 2
Last Quarter
May 9
New
May 17
First Quarter

Hourly Weather History & Observations

Time (CDT) Temp. Windchill Dew Point Humidity Pressure Visibility Wind Dir Wind Speed Gust Speed Precip Events Conditions
12:37 AM 33.8 °F 28.6 °F 33.8 °F 100% 30.04 in 2.5 mi ENE 5.8 mph - N/A   Overcast
12:54 AM 35.1 °F 31.0 °F 34.0 °F 96% 30.06 in 4.0 mi North 4.6 mph - N/A   Overcast
1:09 AM 33.8 °F 28.6 °F 33.8 °F 100% 30.01 in 2.0 mi NE 5.8 mph - N/A   Overcast
1:21 AM 33.8 °F 29.6 °F 33.8 °F 100% 30.01 in 3.0 mi NNE 4.6 mph - N/A   Overcast
1:54 AM 34.0 °F 31.0 °F 33.1 °F 96% 30.03 in 3.0 mi North 3.5 mph - 0.00 in   Overcast
2:54 AM 34.0 °F 31.0 °F 33.1 °F 96% 29.98 in 10.0 mi ENE 3.5 mph - N/A   Overcast
3:54 AM 34.0 °F - 33.1 °F 96% 29.94 in 7.0 mi Calm Calm - 0.00 in   Overcast
4:37 AM 33.8 °F - 33.8 °F 100% 29.88 in 5.0 mi Calm Calm - 0.00 in Rain Light Rain
5:02 AM 33.8 °F 29.6 °F 32.0 °F 93% 29.86 in 6.0 mi SE 4.6 mph - 0.00 in Rain Light Rain
5:29 AM 33.8 °F - 33.8 °F 100% 29.85 in 6.0 mi Calm Calm - 0.01 in Rain Light Rain
5:54 AM 34.0 °F - 33.1 °F 96% 29.88 in 6.0 mi Calm Calm - 0.02 in Rain Light Rain
6:27 AM 33.8 °F 25.3 °F 32.0 °F 93% 29.85 in 7.0 mi WNW 11.5 mph - 0.00 in Rain Light Rain
6:36 AM 33.8 °F 26.4 °F 32.0 °F 93% 29.85 in 5.0 mi NW 9.2 mph - 0.00 in Rain Light Rain
6:54 AM 33.1 °F 27.7 °F 32.0 °F 96% 29.90 in 3.0 mi NNW 5.8 mph - 0.00 in Rain Light Rain
7:41 AM 33.8 °F 28.6 °F 33.8 °F 100% 29.86 in 6.0 mi NNW 5.8 mph - 0.00 in   Overcast
7:54 AM 34.0 °F 29.8 °F 33.1 °F 96% 29.89 in 6.0 mi NNW 4.6 mph - 0.00 in   Overcast
8:13 AM 33.8 °F 27.7 °F 33.8 °F 100% 29.86 in 4.0 mi NNW 6.9 mph - N/A   Overcast
8:54 AM 34.0 °F 24.6 °F 32.0 °F 92% 29.91 in 4.0 mi NW 13.8 mph - N/A   Overcast
9:26 AM 33.8 °F 25.3 °F 30.2 °F 87% 29.86 in 10.0 mi NNW 11.5 mph - N/A   Overcast
9:54 AM 34.0 °F 25.5 °F 32.0 °F 92% 29.92 in 10.0 mi NNW 11.5 mph - N/A   Overcast
10:44 AM 35.6 °F 25.9 °F 30.2 °F 81% 29.88 in 10.0 mi NNW 16.1 mph 25.3 mph N/A   Overcast
10:54 AM 37.0 °F 26.7 °F 30.9 °F 79% 29.93 in 10.0 mi NNW 19.6 mph 24.2 mph N/A   Overcast
11:54 AM 39.0 °F 29.0 °F 30.9 °F 73% 29.95 in 10.0 mi NW 20.7 mph 27.6 mph N/A   Mostly Cloudy
12:54 PM 39.9 °F 30.5 °F 28.9 °F 65% 29.95 in 10.0 mi NNW 19.6 mph 26.5 mph N/A   Mostly Cloudy
1:54 PM 42.1 °F 34.2 °F 28.9 °F 60% 29.95 in 10.0 mi NW 16.1 mph - N/A   Mostly Cloudy
2:54 PM 41.0 °F 32.8 °F 28.9 °F 62% 29.96 in 10.0 mi NW 16.1 mph 25.3 mph N/A   Overcast
3:52 PM 39.2 °F 31.2 °F 28.4 °F 65% 29.92 in 10.0 mi NNW 13.8 mph 24.2 mph N/A   Mostly Cloudy
3:54 PM 39.0 °F 31.0 °F 27.0 °F 62% 29.96 in 10.0 mi NNW 13.8 mph 21.9 mph N/A   Mostly Cloudy
4:43 PM 39.2 °F 31.2 °F 26.6 °F 61% 29.93 in 10.0 mi NNW 13.8 mph 21.9 mph N/A   Overcast
4:54 PM 37.9 °F 29.2 °F 26.1 °F 62% 29.97 in 10.0 mi NNW 15.0 mph 26.5 mph N/A   Overcast
5:13 PM 37.4 °F 29.8 °F 26.6 °F 65% 29.94 in 10.0 mi NNW 11.5 mph 21.9 mph N/A   Mostly Cloudy
5:41 PM 37.4 °F 28.2 °F 26.6 °F 65% 29.93 in 10.0 mi NNW 16.1 mph - N/A   Mostly Cloudy
5:54 PM 37.0 °F 29.3 °F 26.1 °F 65% 29.98 in 10.0 mi NNW 11.5 mph - N/A   Overcast
6:05 PM 37.4 °F 29.3 °F 24.8 °F 60% 29.94 in 10.0 mi NNW 12.7 mph - N/A   Overcast
6:13 PM 35.6 °F 25.5 °F 24.8 °F 65% 29.95 in 10.0 mi NNW 17.3 mph 21.9 mph N/A   Overcast
6:54 PM 36.0 °F 27.5 °F 25.0 °F 64% 29.99 in 10.0 mi NNW 12.7 mph 21.9 mph N/A   Overcast
7:54 PM 35.1 °F 26.9 °F 24.1 °F 64% 30.00 in 10.0 mi NW 11.5 mph - N/A   Overcast
8:11 PM 33.8 °F 26.4 °F 24.8 °F 70% 29.96 in 10.0 mi NNW 9.2 mph - N/A   Overcast
8:37 PM 33.8 °F 27.0 °F 24.8 °F 70% 29.97 in 10.0 mi NNW 8.1 mph - N/A   Overcast
8:54 PM 33.1 °F 27.7 °F 25.0 °F 72% 30.01 in 10.0 mi NNW 5.8 mph - N/A   Mostly Cloudy
9:54 PM 30.0 °F 25.2 °F 24.1 °F 79% 30.01 in 10.0 mi NW 4.6 mph - N/A   Clear
10:54 PM 28.0 °F 24.2 °F 24.1 °F 85% 30.01 in 10.0 mi West 3.5 mph - N/A   Clear
11:54 PM 26.1 °F - 23.0 °F 88% 29.99 in 10.0 mi Calm Calm - N/A   Clear